Location: Rancho Santa Fe Post Office
(33.0184°N, 117.2026°W)
Time: 02:12:14
(UTC+00:00)

Cosmos 2333 - Pass Details

Date: 10 September 2024
Orbit: 830 x 864 km, 70.9° (Epoch: 06 October)

Event Time Altitude Azimuth Distance (km) Brightness Sun altitude
Rises 12:51:18 0° 331° (NNW) 3,410 7.2 -8.8°
Reaches altitude 10° 12:53:51 10° 325° (NW) 2,466 6.4 -8.2°
Maximum altitude 12:59:11 45° 255° (WSW) 1,136 4.5 -7.1°
Drops below altitude 10° 13:04:28 10° 184° (S) 2,433 6.5 -6.1°
Sets 13:06:58 0° 178° (S) 3,360 7.3 -5.5°
